GW4073 Weather Reports


Display with metric or nautical units.
time (UTC)temp
F
wind
direction
speed
MPH
gust
MPH
rain 1hr
in
rain 24hr
in
rain mn
in
humidity
%
barometer
mb
20260506051226 47 95 2.0 3.0 0.00 0.00 0.00 58 1008.1
20260506050724 47 71 3.0 3.0 0.00 0.00 0.00 57 1008.2
20260506050221 47 112 2.0 2.0 0.00 0.00 0.00 57 1008.2
20260506044712 47 108 2.0 3.0 0.00 0.00 0.00 56 1008.2
20260506044209 47 88 2.0 2.0 0.00 0.00 0.00 52 1008.1
20260506043707 47 44 2.0 2.0 0.00 0.00 0.00 53 1008.2
20260506043204 47 51 2.0 2.0 0.00 0.00 0.00 55 1007.8
20260506042703 47 57 1.0 2.0 0.00 0.00 0.00 55 1007.9
20260506042200 47 44 2.0 2.0 0.00 0.00 0.00 54 1007.9
20260506041653 48 89 0.0 3.0 0.00 0.00 0.00 52 1007.7
20260506041149 48 101 2.0 3.0 0.00 0.00 0.00 52 1007.8
20260506040647 48 76 0.0 3.0 0.00 0.00 0.00 50 1007.7
20260506040143 49 91 2.0 3.0 0.00 0.00 0.00 51 1007.5
20260506035641 49 89 2.0 2.0 0.00 0.00 0.00 49 1007.2
20260506035137 50 105 2.0 3.0 0.00 0.00 0.00 47 1007.0
20260506034634 50 110 0.0 2.0 0.00 0.00 0.00 43 1006.9
20260506034131 50 101 2.0 3.0 0.00 0.00 0.00 45 1007.0
20260506033628 50 113 2.0 2.0 0.00 0.00 0.00 45 1007.0
20260506033125 50 108 1.0 2.0 0.00 0.00 0.00 44 1006.8
20260506032623 50 358 1.0 3.0 0.00 0.00 0.00 44 1006.9
20260506032119 51 113 1.0 2.0 0.00 0.00 0.00 43 1006.5
20260506031616 51 184 0.0 2.0 0.00 0.00 0.00 42 1006.4
20260506031113 51 201 1.0 1.0 0.00 0.00 0.00 41 1006.4
20260506030612 52 79 1.0 4.0 0.00 0.00 0.00 42 1006.4
20260506030109 52 236 1.0 4.0 0.00 0.00 0.00 42 1006.2
20260506025606 52 181 2.0 3.0 0.00 0.00 0.00 41 1005.9
20260506025102 52 176 0.0 3.0 0.00 0.00 0.00 45 1005.9
20260506024600 53 293 0.0 3.0 0.00 0.00 0.00 42 1005.9
20260506024056 53 82 1.0 3.0 0.00 0.00 0.00 41 1005.9
20260506023552 53 285 2.0 5.0 0.00 0.00 0.00 42 1005.8
20260506023050 53 322 2.0 3.0 0.00 0.00 0.00 41 1005.5
20260506022547 53 303 3.0 4.0 0.00 0.00 0.00 43 1005.4
20260506022044 53 311 4.0 4.0 0.00 0.00 0.00 43 1005.6
20260506021542 53 297 2.0 2.0 0.00 0.00 0.00 46 1005.5
20260506021039 53 35 0.0 2.0 0.00 0.00 0.00 43 1005.4
20260506020536 54 356 1.0 3.0 0.00 0.00 0.00 44 1005.4
20260506020033 55 298 1.0 4.0 0.00 0.00 0.00 42 1005.1
20260506015531 55 3 1.0 5.0 0.00 0.00 0.00 40 1004.9
20260506015028 55 314 2.0 5.0 0.00 0.00 0.00 39 1004.9
20260506014525 56 223 1.0 4.0 0.00 0.00 0.00 42 1004.9
20260506014021 57 17 1.0 3.0 0.00 0.00 0.00 41 1004.9
20260506013519 57 308 0.0 5.0 0.00 0.00 0.00 39 1004.8
20260506013016 58 254 6.0 6.0 0.00 0.00 0.00 37 1004.8
20260506012512 58 300 2.0 3.0 0.00 0.00 0.00 38 1004.8
20260506012009 58 247 3.0 5.0 0.00 0.00 0.00 38 1004.8
20260506011506 59 311 2.0 4.0 0.00 0.00 0.00 37 1004.5
20260506011002 59 279 3.0 5.0 0.00 0.00 0.00 37 1004.8
20260506010502 60 295 3.0 4.0 0.00 0.00 0.00 36 1004.5
20260506005957 59 298 3.0 4.0 0.00 0.00 0.00 36 1004.8
20260506005455 60 199 2.0 4.0 0.00 0.00 0.00 34 1004.9
20260506004950 60 298 5.0 9.0 0.00 0.00 0.00 35 1004.7
20260506004449 60 288 4.0 5.0 0.00 0.00 0.00 35 1005.1
20260506003944 61 281 4.0 7.0 0.00 0.00 0.00 35 1005.0
20260506003441 61 221 2.0 3.0 0.00 0.00 0.00 34 1004.8
20260506002937 61 272 2.0 6.0 0.00 0.00 0.00 34 1005.0
20260506002433 60 333 0.0 4.0 0.00 0.00 0.00 35 1004.8
20260506001929 62 307 3.0 4.0 0.00 0.00 0.00 35 1004.8
20260506001426 61 265 1.0 5.0 0.00 0.00 0.00 34 1005.0
20260506000923 61 353 2.0 8.0 0.00 0.00 0.00 35 1005.1
20260506000423 61 246 0.0 2.0 0.00 0.00 0.00 38 1004.9
20260505235917 58 284 2.0 2.0 0.00 0.00 0.00 40 1004.9
20260505235416 58 353 1.0 3.0 0.00 0.00 0.00 42 1005.1
20260505234912 57 264 2.0 4.0 0.00 0.00 0.00 41 1005.0
20260505234410 57 297 3.0 3.0 0.00 0.00 0.00 41 1005.2
20260505233906 57 308 4.0 4.0 0.00 0.00 0.00 39 1005.0
20260505233404 58 298 2.0 4.0 0.00 0.00 0.00 38 1005.4
20260505232901 58 269 3.0 4.0 0.00 0.00 0.00 38 1005.2
20260505232359 59 285 2.0 4.0 0.00 0.00 0.00 38 1005.1
20260505231855 58 319 2.0 7.0 0.00 0.00 0.00 38 1005.0
20260505231353 59 314 5.0 5.0 0.00 0.00 0.00 37 1005.1
20260505230851 59 234 3.0 4.0 0.00 0.00 0.00 36 1005.1
20260505230348 59 305 4.0 6.0 0.00 0.00 0.00 36 1005.1
20260505225845 59 314 5.0 7.0 0.00 0.00 0.00 36 1005.0
20260505225342 59 325 2.0 5.0 0.00 0.00 0.00 32 1004.9
20260505224837 60 343 5.0 8.0 0.00 0.00 0.00 33 1004.9
20260505224335 60 292 7.0 8.0 0.00 0.00 0.00 34 1005.2
20260505223832 60 280 3.0 7.0 0.00 0.00 0.00 35 1005.1
20260505223329 62 301 4.0 4.0 0.00 0.00 0.00 30 1005.0
20260505222825 63 278 3.0 6.0 0.00 0.00 0.00 32 1005.1
20260505222321 64 272 2.0 6.0 0.00 0.00 0.00 29 1004.8
20260505221818 67 279 4.0 6.0 0.00 0.00 0.00 28 1004.9
20260505221315 68 290 3.0 7.0 0.00 0.00 0.00 28 1005.0
20260505220812 68 290 2.0 5.0 0.00 0.00 0.00 28 1004.9
20260505220309 67 274 4.0 8.0 0.00 0.00 0.00 30 1005.0
20260505215807 65 136 7.0 11.0 0.00 0.00 0.00 27 1005.0
20260505215305 64 272 3.0 11.0 0.00 0.00 0.00 28 1005.5
20260505214802 66 148 4.0 6.0 0.00 0.00 0.00 24 1005.4
20260505214300 66 283 4.0 9.0 0.00 0.00 0.00 30 1005.2
20260505213756 67 318 3.0 6.0 0.00 0.00 0.00 27 1005.1
20260505213254 67 289 3.0 6.0 0.00 0.00 0.00 27 1005.5
20260505212749 67 237 2.0 4.0 0.00 0.00 0.00 29 1005.6
20260505212247 66 261 4.0 8.0 0.00 0.00 0.00 29 1005.6
20260505211744 66 209 3.0 6.0 0.00 0.00 0.00 27 1005.6
20260505211241 65 248 3.0 11.0 0.00 0.00 0.00 28 1005.5
20260505210737 65 254 2.0 6.0 0.00 0.00 0.00 29 1005.7
20260505210234 64 225 4.0 7.0 0.00 0.00 0.00 28 1006.1
20260505205732 65 299 3.0 8.0 0.00 0.00 0.00 29 1006.1
20260505205230 66 237 3.0 7.0 0.00 0.00 0.00 30 1006.2
20260505204726 65 154 3.0 8.0 0.00 0.00 0.00 30 1005.9
20260505204224 63 215 7.0 16.0 0.00 0.00 0.00 30 1005.9
20260505203721 64 194 6.0 12.0 0.00 0.00 0.00 27 1006.1
20260505203218 64 256 2.0 8.0 0.00 0.00 0.00 29 1006.1
20260505202713 62 238 4.0 15.0 0.00 0.00 0.00 35 1006.2
20260505202210 64 292 3.0 12.0 0.00 0.00 0.00 33 1005.9
20260505201706 62 119 1.0 9.0 0.00 0.00 0.00 30 1006.3
20260505201204 63 259 5.0 10.0 0.00 0.00 0.00 32 1006.2
20260505200702 63 264 5.0 11.0 0.00 0.00 0.00 35 1006.2
20260505200159 62 239 2.0 10.0 0.00 0.00 0.00 32 1006.3
20260505195654 64 276 3.0 5.0 0.00 0.00 0.00 31 1006.3
20260505195152 63 240 5.0 10.0 0.00 0.00 0.00 33 1006.5
20260505194649 61 172 2.0 10.0 0.00 0.00 0.00 34 1006.4
20260505194145 63 232 2.0 5.0 0.00 0.00 0.00 34 1006.5
20260505193642 60 254 2.0 10.0 0.00 0.00 0.00 38 1006.7
20260505193139 60 243 3.0 9.0 0.00 0.00 0.00 35 1006.8
20260505192638 61 152 2.0 6.0 0.00 0.00 0.00 36 1006.9
20260505192135 60 269 4.0 7.0 0.00 0.00 0.00 36 1006.5
20260505191633 60 188 4.0 9.0 0.00 0.00 0.00 36 1006.9
20260505191131 59 137 5.0 13.0 0.00 0.00 0.00 35 1006.9
20260505190627 59 208 6.0 7.0 0.00 0.00 0.00 36 1006.9
20260505190121 60 174 0.0 8.0 0.00 0.00 0.00 37 1006.8
20260505185619 58 141 2.0 11.0 0.00 0.00 0.00 38 1006.8
20260505185115 60 306 4.0 8.0 0.00 0.00 0.00 35 1006.9
20260505184611 61 255 4.0 10.0 0.00 0.00 0.00 39 1007.1
20260505184108 61 257 3.0 6.0 0.00 0.00 0.00 38 1006.9
20260505183605 61 258 3.0 6.0 0.00 0.00 0.00 39 1007.0
20260505183103 60 154 6.0 7.0 0.00 0.00 0.00 36 1007.1
20260505182559 60 235 3.0 4.0 0.00 0.00 0.00 41 1007.1
20260505182056 59 158 7.0 8.0 0.00 0.00 0.00 36 1007.1
20260505181552 59 307 3.0 5.0 0.00 0.00 0.00 39 1007.0
20260505181050 58 240 5.0 6.0 0.00 0.00 0.00 39 1007.2
20260505180545 59 216 4.0 8.0 0.00 0.00 0.00 38 1007.1
20260505180043 58 143 5.0 6.0 0.00 0.00 0.00 38 1007.1
20260505175538 59 222 1.0 4.0 0.00 0.00 0.00 39 1007.2
20260505175035 60 240 3.0 4.0 0.00 0.00 0.00 38 1007.4
20260505174532 60 297 4.0 4.0 0.00 0.00 0.00 41 1007.4
20260505174028 57 259 5.0 5.0 0.00 0.00 0.00 41 1007.2
20260505173525 57 246 3.0 6.0 0.00 0.00 0.00 44 1007.4
20260505173021 57 272 2.0 7.0 0.00 0.00 0.00 43 1007.4
20260505172519 57 238 4.0 7.0 0.00 0.00 0.00 40 1007.4
20260505172014 56 232 2.0 6.0 0.00 0.00 0.00 41 1007.2
20260505171505 57 205 6.0 6.0 0.00 0.00 0.00 39 1007.2
20260505171002 58 208 4.0 5.0 0.00 0.00 0.00 37 1007.5
20260505170458 58 266 2.0 5.0 0.00 0.00 0.00 39 1007.5
20260505165953 59 311 3.0 5.0 0.00 0.00 0.00 40 1007.2
20260505165444 58 195 4.0 9.0 0.00 0.00 0.00 40 1007.2
20260505164939 58 195 1.0 4.0 0.00 0.00 0.00 37 1007.4
20260505164436 57 264 2.0 4.0 0.00 0.00 0.00 42 1007.4
20260505163934 57 281 7.0 9.0 0.00 0.00 0.00 40 1007.1
20260505163432 56 142 9.0 14.0 0.00 0.00 0.00 38 1007.5
20260505162926 57 174 2.0 4.0 0.00 0.00 0.00 41 1007.4
20260505162421 56 177 2.0 5.0 0.00 0.00 0.00 40 1007.4
20260505161918 55 269 5.0 6.0 0.00 0.00 0.00 45 1007.4
20260505161415 56 176 4.0 5.0 0.00 0.00 0.00 40 1007.5
20260505160913 53 184 2.0 8.0 0.00 0.00 0.00 43 1007.2
20260505160410 54 272 2.0 6.0 0.00 0.00 0.00 44 1007.5
20260505153344 54 241 2.0 2.0 0.00 0.00 0.00 42 1007.2
20260505152840 52 303 2.0 3.0 0.00 0.00 0.00 46 1007.4
20260505152337 51 211 1.0 7.0 0.00 0.00 0.00 45 1007.4
20260505151831 52 324 1.0 4.0 0.00 0.00 0.00 44 1007.2
20260505151328 50 308 2.0 4.0 0.00 0.00 0.00 46 1007.4
20260505150825 49 224 2.0 2.0 0.00 0.00 0.00 47 1007.2
20260505150322 50 50 2.0 2.0 0.00 0.00 0.00 48 1007.5
20260505140246 40 53 3.0 6.0 0.00 0.00 0.00 60 1007.5
20260505130210 35 58 2.0 6.0 0.00 0.00 0.00 69 1007.2
20260505124700 35 108 5.0 7.0 0.00 0.00 0.00 68 1007.0
20260505124157 35 91 3.0 12.0 0.00 0.00 0.00 67 1006.8
20260505123653 35 77 4.0 9.0 0.00 0.00 0.00 68 1007.1
20260505123150 35 126 10.0 11.0 0.00 0.00 0.00 68 1007.0
20260505122641 35 58 3.0 10.0 0.00 0.00 0.00 68 1007.0
20260505122138 35 84 4.0 11.0 0.00 0.00 0.00 67 1007.1
20260505121634 35 94 6.0 12.0 0.00 0.00 0.00 67 1006.9
20260505121126 35 99 5.0 12.0 0.00 0.00 0.00 67 1007.0
20260505120621 36 108 5.0 10.0 0.00 0.00 0.00 66 1007.1
20260505120117 36 101 5.0 10.0 0.00 0.00 0.00 65 1006.8
20260505115612 36 42 4.0 12.0 0.00 0.00 0.00 65 1007.0
20260505115109 36 118 6.0 13.0 0.00 0.00 0.00 65 1007.1
20260505114607 35 49 6.0 6.0 0.00 0.00 0.00 66 1007.0
20260505114103 35 51 4.0 5.0 0.00 0.00 0.00 67 1007.2
20260505113559 36 34 4.0 9.0 0.00 0.00 0.00 66 1007.1
20260505113055 36 52 5.0 8.0 0.00 0.00 0.00 65 1007.1
20260505112551 36 53 4.0 8.0 0.00 0.00 0.00 65 1007.1
20260505112050 36 26 8.0 11.0 0.00 0.00 0.00 65 1007.4
20260505111544 36 58 4.0 9.0 0.00 0.00 0.00 66 1007.1
20260505111040 36 72 5.0 5.0 0.00 0.00 0.00 66 1007.0
20260505110537 36 57 6.0 12.0 0.00 0.00 0.00 66 1007.2
20260505102003 37 40 4.0 8.0 0.00 0.00 0.00 64 1007.0
20260505101455 37 61 5.0 14.0 0.00 0.00 0.00 63 1007.4
20260505100952 37 61 6.0 12.0 0.00 0.00 0.00 63 1007.4
20260505100450 37 60 8.0 13.0 0.00 0.00 0.00 64 1007.2
20260505095945 37 75 7.0 11.0 0.00 0.00 0.00 65 1007.5
20260505095442 37 82 6.0 9.0 0.00 0.00 0.00 65 1007.2
20260505094938 37 89 6.0 10.0 0.00 0.00 0.00 65 1007.2
20260505094435 37 80 5.0 11.0 0.00 0.00 0.00 64 1007.2
20260505093931 37 115 7.0 11.0 0.00 0.00 0.00 63 1007.1
20260505093428 37 69 9.0 12.0 0.00 0.00 0.00 64 1007.1
20260505092925 38 34 5.0 11.0 0.00 0.00 0.00 65 1007.4
20260505092423 38 66 5.0 8.0 0.00 0.00 0.00 64 1007.4
20260505091920 38 60 4.0 11.0 0.00 0.00 0.00 63 1007.2
20260505091418 38 104 7.0 8.0 0.00 0.00 0.00 63 1007.4
20260505090915 38 56 5.0 10.0 0.00 0.00 0.00 63 1007.2
20260505090413 38 72 6.0 8.0 0.00 0.00 0.00 63 1007.2
20260505085911 38 49 12.0 13.0 0.00 0.00 0.00 63 1007.2
20260505085409 38 73 9.0 10.0 0.00 0.00 0.00 62 1007.6
20260505084907 39 50 7.0 9.0 0.00 0.00 0.00 62 1007.5
20260505084405 39 113 6.0 7.0 0.00 0.00 0.00 62 1007.4
20260505083903 39 52 9.0 11.0 0.00 0.00 0.00 62 1007.7
20260505083400 39 64 6.0 9.0 0.00 0.00 0.00 62 1007.8
20260505082856 39 67 8.0 11.0 0.00 0.00 0.00 63 1007.7
20260505082352 39 51 4.0 11.0 0.00 0.00 0.00 62 1007.7
20260505081849 39 67 3.0 11.0 0.00 0.00 0.00 62 1007.8
20260505081345 39 141 5.0 6.0 0.00 0.00 0.00 62 1007.7
20260505080842 40 81 5.0 13.0 0.00 0.00 0.00 61 1007.8
20260505080338 40 71 3.0 12.0 0.00 0.00 0.00 61 1007.7
20260505075834 40 40 5.0 9.0 0.00 0.00 0.00 61 1007.7
20260505075330 40 112 6.0 8.0 0.00 0.00 0.00 61 1007.8
20260505074828 40 51 2.0 7.0 0.00 0.00 0.00 61 1007.9
20260505074325 40 73 6.0 11.0 0.00 0.00 0.00 62 1007.9
20260505073822 40 65 6.0 7.0 0.00 0.00 0.00 63 1008.1
20260505073320 41 70 7.0 10.0 0.00 0.00 0.00 61 1007.9
20260505072816 41 105 4.0 9.0 0.00 0.00 0.00 63 1007.8
20260505072312 41 81 4.0 11.0 0.00 0.00 0.00 62 1007.8
20260505071808 41 54 9.0 9.0 0.00 0.00 0.00 62 1008.2
20260505071305 41 57 6.0 8.0 0.00 0.00 0.00 62 1007.8
20260505070803 41 68 5.0 7.0 0.00 0.00 0.00 63 1008.1
20260505070254 41 74 6.0 8.0 0.00 0.00 0.00 65 1007.8
20260505065749 41 64 5.0 7.0 0.00 0.00 0.00 64 1007.7
20260505065246 41 85 4.0 9.0 0.00 0.00 0.00 65 1007.7
20260505064743 41 42 8.0 8.0 0.00 0.00 0.00 64 1007.7
20260505064241 42 60 6.0 9.0 0.00 0.00 0.00 64 1007.7
20260505063738 42 65 6.0 9.0 0.00 0.00 0.00 63 1007.5
20260505063235 42 85 4.0 7.0 0.00 0.00 0.00 62 1007.5
20260505062731 42 64 7.0 8.0 0.00 0.00 0.00 63 1007.4
20260505062229 42 71 5.0 7.0 0.00 0.00 0.00 62 1007.4
20260505061725 42 63 4.0 5.0 0.00 0.00 0.00 63 1007.5
20260505061224 43 113 4.0 6.0 0.00 0.00 0.00 62 1007.4
20260505060721 43 62 6.0 10.0 0.00 0.00 0.00 64 1007.5
20260505060217 43 58 5.0 10.0 0.00 0.00 0.00 64 1007.4
20260505055713 43 55 5.0 8.0 0.00 0.02 0.02 63 1007.0
20260505055209 43 70 5.0 6.0 0.00 0.02 0.02 62 1007.2
20260505054707 44 58 4.0 6.0 0.00 0.02 0.02 62 1007.4
20260505054204 44 104 3.0 5.0 0.00 0.02 0.02 63 1007.2
20260505053656 44 58 2.0 4.0 0.00 0.02 0.02 62 1007.5
20260505053153 44 32 3.0 7.0 0.00 0.02 0.02 65 1007.5